Location: Baggettsville
(36.4767°N, 86.7303°W)
Time: 09:05:17
(UTC+00:00)

SAR-Lupe-4 - Pass Details

Date: 29 October 2020
Orbit: 481 x 484 km, 98.2° (Epoch: 25 November)

Event Time Altitude Azimuth Distance (km) Brightness Sun altitude
Rises 23:23:58 0° 17° (NNE) 2,548 6.9 -6.9°
Reaches altitude 10° 23:26:04 10° 22° (NNE) 1,664 6.0 -7.3°
Maximum altitude 23:29:35 55° 101° (E) 584 3.6 -8.0°
Drops below altitude 10° 23:33:04 10° 180° (S) 1,652 6.4 -8.7°
Sets 23:35:08 0° 185° (S) 2,527 7.4 -9.1°
